Tracking 33068 objects as of 25-Jan-2026
HD Live streaming from Space Station
objects crossing your sky now

STARLINK-3550

Track STARLINK-3550 now!
10-day predictions
STARLINK-3550 is classified as:


NORAD ID: 52373
Int'l Code: 2022-045AU
Perigee: 545.8 km
Apogee: 548.0 km
Inclination: 53.2 °
Period: 95.4 minutes
Semi major axis: 6917 km
RCS: Unknown
Launch date: April 29, 2022
Source: United States (US)
Launch site: AIR FORCE EASTERN TEST RANGE (AFETR)
Your satellite tracking list
Your tracking list is empty




NASA's NSSDC Master Catalog

Two Line Element Set (TLE):
1 52373U 22045AU  26024.30165082  .00003701  00000-0  25046-3 0  9993
2 52373  53.2196  28.3888 0001588  87.5144 272.6030 15.08845614209223
Source of the keplerian elements: AFSPC